CW7054 Hampton Bays NY US current weather conditions

sailwx.info

Wind from 128 at 0 knots gusting 7

Air temperature 10.0° C
Dewpoint -43.9° C

Last reported at 2019-Dec-13 22:01 UTC.
Time now 2019-Dec-13 23:14 UTC

Location: N 40°52' W 072°32'.
View on Google Maps.

See reports from other nearby stations

  
Tides and Currents Weather Stations Pressure Air Temp Water Temp Dewpoint Dewpoint Depression Visibility Wind Speed Wind Dir Waves Ship Positions
date/time (UTC)wind fromknots sea level pressurealtimeterstation pressurevisibilityair tempwater tempwave heightnotes
2019-Dec-13 22:01 128 0 gusting 7 10.0
2019-Dec-13 21:46 094 0 gusting 6 10.0
2019-Dec-13 21:32 086 10.0
2019-Dec-13 21:16 087 10.0
2019-Dec-13 21:00 092 10.0
2019-Dec-13 20:45 098 0 gusting 6 10.0
2019-Dec-13 20:30 092 10.6
2019-Dec-13 20:15 095 0 gusting 5 10.6
2019-Dec-13 20:00 131 10.6
2019-Dec-13 19:45 098 10.6
2019-Dec-13 19:34 114 10.6
2019-Dec-13 19:17 098 10.6
2019-Dec-13 19:02 111 10.6
2019-Dec-13 18:48 107 10.6
2019-Dec-13 18:31 107 10.6
2019-Dec-13 18:16 113 10.6
2019-Dec-13 18:01 117 0 gusting 6 10.6
2019-Dec-13 17:46 161 0 gusting 4 10.6
2019-Dec-13 17:31 123 0 gusting 3 10.0
2019-Dec-13 17:15 149 1 gusting 4 10.0
2019-Dec-13 17:00 165 10.0
2019-Dec-13 16:45 167 1 gusting 6 9.4
2019-Dec-13 16:30 173 0 gusting 7 9.4
2019-Dec-13 16:15 165 0 gusting 8 9.4
2019-Dec-13 16:02 162 1 gusting 8 9.4
2019-Dec-13 15:47 168 2 gusting 5 8.9
2019-Dec-13 15:32 175 0 gusting 6 8.9
2019-Dec-13 15:17 166 1 gusting 5 8.3
2019-Dec-13 15:02 157 8.3
2019-Dec-13 14:47 163 0 gusting 4 7.8
2019-Dec-13 14:30 167 2 gusting 6 7.8
2019-Dec-13 14:16 144 7.8
2019-Dec-13 14:00 147 0 gusting 5 7.2
2019-Dec-13 13:46 135 7.2
2019-Dec-13 13:30 164 1 gusting 7 7.2
2019-Dec-13 13:15 161 6.7
2019-Dec-13 13:00 173 0 gusting 8 6.7
2019-Dec-13 12:45 150 1 gusting 6 6.1
2019-Dec-13 12:32 140 6.1
2019-Dec-13 12:16 161 0 gusting 7 6.1
2019-Dec-13 12:02 094 0 gusting 6 5.6
2019-Dec-13 11:46 186 0 gusting 6 5.6
2019-Dec-13 11:31 150 1 gusting 10 5.0
2019-Dec-13 11:16 174 2 gusting 6 5.0
2019-Dec-13 11:01 169 0 gusting 6 4.4
2019-Dec-13 10:46 178 1 gusting 6 4.4
2019-Dec-13 10:31 160 4.4
2019-Dec-13 10:16 163 4.4
2019-Dec-13 10:00 157 1 gusting 5 3.9
2019-Dec-13 09:45 168 0 gusting 6 3.3
2019-Dec-13 09:30 172 2.8
2019-Dec-13 09:17 175 2.2
2019-Dec-13 09:01 177 1.7
2019-Dec-13 08:48 176 1.1
2019-Dec-13 08:31 148 1.1
2019-Dec-13 08:17 147 1.1
2019-Dec-13 08:01 146 -0.0
2019-Dec-13 07:46 120 -1.1
2019-Dec-13 07:31 062 -2.2
2019-Dec-13 07:00 062 -2.8
2019-Dec-13 06:46 062 -2.8
2019-Dec-13 06:30 062 -3.3
2019-Dec-13 06:15 062 -3.9
2019-Dec-13 06:00 062 -3.9
2019-Dec-13 05:46 062 -4.4
2019-Dec-13 05:32 062 -4.4
2019-Dec-13 05:03 062 -4.4
2019-Dec-13 04:46 062 -4.4
2019-Dec-13 04:32 062 -4.4
2019-Dec-13 04:16 062 -5.0
2019-Dec-13 04:02 062 -5.0
2019-Dec-13 03:46 062 -5.6
2019-Dec-13 03:31 062 -5.6
2019-Dec-13 03:16 062 -5.6
2019-Dec-13 03:01 062 -5.6
2019-Dec-13 02:47 062 -5.6
2019-Dec-13 02:31 062 -5.6
2019-Dec-13 02:16 062 -5.6
2019-Dec-13 02:00 062 -5.6
2019-Dec-13 01:46 062 -5.6
2019-Dec-13 01:31 062 -5.0
2019-Dec-13 01:16 062 -5.0
2019-Dec-13 01:01 062 -5.0
2019-Dec-13 00:45 062 -5.0
2019-Dec-13 00:32 062 -5.0
2019-Dec-13 00:16 062 -4.4
2019-Dec-13 00:01 062 -4.4
2019-Dec-12 23:45 062 -4.4
2019-Dec-12 23:31 062 -3.9
2019-Dec-12 23:15 062 -3.9
2019-Dec-12 23:01 062 -3.3
2019-Dec-12 22:46 062 -3.3
2019-Dec-12 22:30 062 -2.8
2019-Dec-12 22:15 062 -2.8
2019-Dec-12 22:01 062 -2.2
2019-Dec-12 21:45 063 -1.7
2019-Dec-12 21:30 062 -1.1
2019-Dec-12 21:15 063 -0.6
2019-Dec-12 21:00 062 -0.0
2019-Dec-12 20:45 062 -0.0
2019-Dec-12 20:30 062 -0.0
2019-Dec-12 20:15 062 0.6
2019-Dec-12 20:00 061 0.6
2019-Dec-12 19:45 061 0.6
2019-Dec-12 19:30 064 1.1
2019-Dec-12 19:15 035 1.1
2019-Dec-12 19:00 080 0.6
2019-Dec-12 18:45 119 2 gusting 6 0.6
2019-Dec-12 18:30 044 0.6
2019-Dec-12 18:15 058 0 gusting 6 0.6
2019-Dec-12 18:00 355 0 gusting 6 0.6
2019-Dec-12 17:45 011 0 gusting 4 0.6
2019-Dec-12 17:30 338 1 gusting 5 0.6
2019-Dec-12 17:19 068 1 gusting 7 -0.0
2019-Dec-12 17:02 005 1 gusting 9 -0.6
2019-Dec-12 16:47 011 2 gusting 8 -0.6
2019-Dec-12 16:32 048 1 gusting 9 -0.6
2019-Dec-12 16:18 355 1 gusting 7 -0.6
2019-Dec-12 16:02 017 2 gusting 10 -0.6
2019-Dec-12 15:48 017 0 gusting 7 -0.6
2019-Dec-12 15:31 345 1 gusting 6 -1.1
2019-Dec-12 15:17 045 1 gusting 12 -1.1
2019-Dec-12 15:02 024 1 gusting 8 -1.1
2019-Dec-12 14:47 333 3 gusting 11 -1.7
2019-Dec-12 14:32 065 2 gusting 10 -1.7
2019-Dec-12 14:17 355 1 gusting 11 -1.7
2019-Dec-12 14:01 020 1 gusting 6 -1.7
2019-Dec-12 13:48 084 -2.2
2019-Dec-12 13:31 350 2 gusting 7 -2.2
2019-Dec-12 13:16 355 2 gusting 7 -2.8
2019-Dec-12 13:01 005 1 gusting 10 -2.8
2019-Dec-12 12:47 340 1 gusting 5 -2.8
2019-Dec-12 12:31 018 -3.3
2019-Dec-12 12:15 307 0 gusting 8 -3.3
2019-Dec-12 12:00 346 0 gusting 4 -3.3
2019-Dec-12 11:45 005 1 gusting 8 -3.3
2019-Dec-12 11:30 005 0 gusting 7 -3.3
2019-Dec-12 11:15 269 0 gusting 4 -3.3
2019-Dec-12 11:00 327 0 gusting 8 -2.8
2019-Dec-12 10:45 056 0 gusting 6 -2.8
2019-Dec-12 10:30 300 1 gusting 9 -2.8
2019-Dec-12 10:15 322 1 gusting 7 -2.8
2019-Dec-12 09:47 033 1 gusting 8 -2.8
2019-Dec-12 09:32 360 0 gusting 12 -2.8
2019-Dec-12 09:17 011 0 gusting 10 -2.2
2019-Dec-12 09:04 347 0 gusting 6 -2.2
2019-Dec-12 08:46 332 1 gusting 10 -2.2
2019-Dec-12 08:32 333 2 gusting 8 -2.2
2019-Dec-12 08:16 338 3 gusting 10 -2.2
2019-Dec-12 08:01 028 5 gusting 10 -1.7
2019-Dec-12 07:45 341 3 gusting 13 -1.7
2019-Dec-12 07:31 355 3 gusting 9 -1.7
2019-Dec-12 07:01 320 1 gusting 7 -1.1
2019-Dec-12 06:46 084 1 gusting 9 -1.1
2019-Dec-12 06:30 286 2 gusting 9 -1.1
2019-Dec-12 06:15 283 -1.7
2019-Dec-12 06:00 316 0 gusting 3 -1.7
2019-Dec-12 05:45 300 2 gusting 7 -1.1
2019-Dec-12 05:30 275 2 gusting 6 -1.1
2019-Dec-12 05:15 282 1 gusting 7 -1.7
2019-Dec-12 05:00 257 1 gusting 7 -1.1
2019-Dec-12 04:46 313 2 gusting 6 -1.1
2019-Dec-12 04:32 286 2 gusting 8 -1.1
2019-Dec-12 04:17 276 -1.7
2019-Dec-12 04:01 288 2 gusting 7 -1.7
2019-Dec-12 03:48 306 0 gusting 7 -1.7
2019-Dec-12 03:32 265 -1.7
2019-Dec-12 03:16 263 0 gusting 6 -1.7
2019-Dec-12 03:01 286 -1.1
2019-Dec-12 02:46 264 -1.1
2019-Dec-12 02:30 254 1 gusting 6 -1.1
2019-Dec-12 02:15 242 2 gusting 7 -1.1
2019-Dec-12 02:00 290 1 gusting 6 -1.1
2019-Dec-12 01:45 241 1 gusting 6 -1.1
2019-Dec-12 01:30 275 -1.1
2019-Dec-12 01:17 281 -1.1
2019-Dec-12 01:02 207 -1.1
2019-Dec-12 00:46 265 -1.1
2019-Dec-12 00:30 243 -1.1
2019-Dec-12 00:16 251 -1.1
2019-Dec-12 00:02 226 -1.1
2019-Dec-11 23:47 220 0 gusting 4 -1.1
2019-Dec-11 23:31 264 -1.1
2019-Dec-11 23:16 265 -1.1
2019-Dec-11 23:01 267 -1.1